[[{"header":{"parameterUnit":"m.s-1","parameterCategory":1,"la1":30.2991,"la2":30.254,"lo1":-89.0895,"lo2":-89.0444,"dy":0.0017,"dx":0.0017,"nx":28,"ny":28,"refTime":"2025-11-29T03:00:00:Z","depth":0,"parameterNumber":2,"parameterNumberName":"U-component_of_WINDS"},"data":[0,0,0,0,0,0,0,0,0,0,0,0,0,0,0,0,0,0,0,0,0,0,0,0,0,0,0,0,0,0,0,0,0,0,0,0,0,0,0,0,0,0,0,0,0,0,0,0,0,0,0,0,0,0,0,0,0,0,-4.5656,-4.5658,0,-4.584,-4.5842,-4.5844,-4.59,-4.5899,-4.5898,-4.5897,-4.6084,-4.609,-4.6096,0,0,0,0,0,0,0,0,0,0,0,0,0,-4.5353,-4.5358,-4.5656,-4.5658,-4.5661,-4.5839,-4.5842,-4.5844,-4.59,-4.5899,-4.5898,-4.5897,-4.6082,-4.6089,-4.6096,0,0,0,0,0,0,0,0,0,0,0,0,0,-4.5505,-4.536,-4.5656,-4.571,-4.5717,-4.5839,-4.5842,-4.5845,-4.59,-4.5899,-4.5898,-4.5896,-4.608,-4.6088,-4.6097,-4.6178,0,0,-4.6124,-4.6128,0,0,0,0,0,0,0,0,-4.5497,-4.5516,-4.57,-4.5706,-4.5714,-4.5846,-4.5804,-4.5957,-4.5901,-4.5831,-4.5897,-4.5896,-4.6006,-4.6021,-4.6058,-4.6187,-4.6195,-4.6125,-4.613,-4.6134,-4.6136,0,0,0,0,0,0,0,-4.5486,-4.5509,-4.5729,-4.5702,-4.5711,-4.5725,-4.5745,-4.5833,-4.5924,-4.5837,-4.5841,-4.5862,-4.601,-4.6049,-4.6063,-4.6198,-4.6124,-4.6132,-4.6137,-4.6141,-4.6402,-4.6404,0,0,0,0,0,0,-4.5466,-4.55,-4.5723,-4.5734,-4.56,-4.5732,-4.5754,-4.5805,-4.5923,-4.5939,-4.5863,-4.5864,-4.6035,-4.6052,-4.607,-4.6172,-4.6133,-4.6142,-4.6147,-4.6401,-4.6403,-4.6405,0,0,0,0,0,0,-4.546,-4.5486,-4.5715,-4.5618,-4.5649,-4.5738,-4.5795,-4.5809,-4.5849,-4.5943,-4.5959,-4.5887,-4.6035,-4.6057,-4.6151,-4.6179,-4.6146,-4.6154,-4.6399,-4.6401,-4.6404,-4.6377,0,0,0,0,0,0,-4.5451,-4.5483,-4.5515,-4.5619,-4.5654,-4.5793,-4.5796,-4.5814,-4.5864,-4.5867,-4.597,-4.5985,-4.6035,-4.6137,-4.6159,-4.619,-4.616,-4.6397,-4.64,-4.6403,-4.6375,-4.6378,-4.638,0,0,0,0,0,-4.544,-4.5499,-4.5516,-4.5543,-4.5695,-4.5795,-4.5815,-4.5872,-4.5866,-4.5899,-4.5959,-4.5982,-4.6173,-4.6147,-4.6172,-4.6206,-4.6395,-4.6399,-4.6403,-4.6374,-4.6377,-4.638,0,0,0,0,0,0,-4.5396,-4.5514,-4.5534,-4.5629,-4.5701,-4.5804,-4.5847,-4.5873,-4.5949,-4.5948,-4.6015,-4.6038,-4.6126,-4.6176,-4.6145,-4.6291,-4.6285,-4.6294,-4.6255,-4.6258,-4.6261,-4.6246,-4.6168,0,0,0,0,0,-4.5397,-4.5469,-4.5568,-4.5643,-4.5678,-4.5756,-4.5802,-4.5839,-4.5917,-4.5948,-4.6015,-4.609,-4.6167,-4.6216,-4.6291,-4.6384,-4.6407,-4.642,-4.6422,-4.6423,-4.643,-4.6482,-4.6489,-4.6417,-4.6417,-4.6417,0,0,-4.5401,-4.5474,-4.5515,-4.5636,-4.5696,-4.5769,-4.5782,-4.5857,-4.5912,-4.596,-4.6052,-4.6104,-4.6192,-4.6285,-4.6329,-4.6329,-4.6455,-4.6428,-4.6429,-4.6435,-4.6487,-4.6493,-4.6499,-4.642,-4.642,-4.6419,0,0,-4.5443,-4.5507,-4.5575,-4.5636,-4.5728,-4.578,-4.5797,-4.5896,-4.5933,-4.6027,-4.6064,-4.613,-4.6261,-4.6322,-4.637,-4.6437,-4.6461,-4.646,-4.6472,-4.6522,-4.6528,-4.6533,-4.6556,-4.6564,-4.6467,-4.6467,-4.6467,0,-4.5436,-4.5546,-4.5607,-4.5681,-4.5733,-4.5781,-4.5851,-4.5907,-4.6019,-4.6054,-4.6052,-4.6218,-4.628,-4.6388,-4.6404,-4.6442,-4.6463,-4.6448,-4.6522,-4.6528,-4.6534,-4.6557,-4.6565,-4.6466,-4.6466,-4.6466,-4.6466,0,-4.5532,-4.5608,-4.5653,-4.576,-4.5817,-4.5889,-4.596,-4.6011,-4.6044,-4.6096,-4.6191,-4.6268,-4.636,-4.6389,-4.6422,-4.6502,-4.6499,-4.6509,-4.6504,-4.6539,-4.6561,-4.657,-4.6465,-4.6465,-4.6465,-4.6465,0,0,-4.555,-4.5691,-4.5706,-4.5756,-4.5862,-4.5922,-4.5996,-4.6087,-4.6128,-4.6205,-4.6268,-4.6378,-4.6389,-4.6443,-4.6484,-4.6528,-4.6576,-4.6533,-4.6536,-4.6537,-4.6668,-4.6658,-4.6667,-4.6593,-4.6595,-4.6597,-4.666,0,-4.5605,-4.574,-4.5797,-4.5905,-4.5976,-4.6023,-4.6088,-4.616,-4.6211,-4.6278,-4.6335,-4.6411,-4.642,-4.6453,-4.6499,-4.656,-4.6602,-4.6556,-4.6652,-4.6654,-4.6626,-4.6679,-4.667,-4.6725,-4.6669,-4.6671,-4.6672,0,-4.5687,-4.5764,-4.5879,-4.5977,-4.6009,-4.6065,-4.6153,-4.6218,-4.6301,-4.6335,-4.6396,-4.6435,-4.6514,-4.6506,-4.6616,-4.6584,-4.6627,-4.6663,-4.6666,-4.6676,-4.6664,-4.6689,-4.6745,-4.6752,-4.6687,-4.6685,-4.6684,0,-4.5687,-4.582,-4.5906,-4.5947,-4.6063,-4.6102,-4.6152,-4.6234,-4.6285,-4.6362,-4.6396,-4.6481,-4.6528,-4.6593,-4.6653,-4.6642,-4.6758,-4.6754,-4.6788,-4.6786,-4.6808,-4.6806,-4.687,-4.6838,-4.6838,-4.6838,-4.6838,0,-4.5742,-4.581,-4.5907,-4.596,-4.6037,-4.6103,-4.6179,-4.6232,-4.6305,-4.6369,-4.6415,-4.6474,-4.6552,-4.662,-4.6669,-4.6752,-4.6773,-4.6803,-4.6814,-4.6797,-4.6793,-4.6825,-4.6822,-4.684,-4.684,-4.6839,-4.6839,0,-4.5754,-4.5822,-4.5919,-4.6022,-4.6049,-4.6102,-4.619,-4.6243,-4.6297,-4.6377,-4.6399,-4.6484,-4.6567,-4.6635,-4.6744,-4.6776,-4.6864,-4.6878,-4.6835,-4.6841,-4.687,-4.6866,-4.6956,-4.6971,-4.693,-4.693,-4.693,0,-4.5784,-4.5837,-4.5946,-4.5992,-4.6042,-4.6116,-4.6169,-4.6236,-4.6289,-4.6388,-4.6429,-4.6516,-4.6589,-4.672,-4.6791,-4.6875,-4.689,-4.6916,-4.6903,-4.6884,-4.6889,-4.6884,-4.689,-4.6916,-4.6916,-4.6917,-4.6917,0,-4.5829,-4.586,-4.5934,-4.602,-4.6081,-4.6152,-4.6224,-4.626,-4.634,-4.6397,-4.6483,-4.654,-4.6652,-4.6737,-4.6829,-4.6881,-4.6912,-4.6921,-4.6933,-4.6915,-4.6888,-4.6902,-4.6837,-4.6918,-4.6918,-4.6918,-4.6917,-4.6917,-4.585,-4.59,-4.5984,-4.6065,-4.6126,-4.6193,-4.6248,-4.6309,-4.6382,-4.6478,-4.6514,-4.6602,-4.6684,-4.6811,-4.6863,-4.6933,-4.6936,-4.6953,-4.6958,-4.696,-4.6958,-4.6878,-4.695,-4.695,-4.695,-4.695,-4.695,0,-4.5896,-4.5953,-4.6027,-4.6126,-4.619,-4.6215,-4.6297,-4.6348,-4.6425,-4.6499,-4.657,-4.6669,-4.6753,-4.6831,-4.6918,-4.6959,-4.6976,-4.698,-4.6977,-4.6988,-4.6951,-4.6931,-4.6965,-4.6965,-4.6965,-4.6965,-4.6965,-4.6965,-4.5928,-4.6013,-4.6054,-4.617,-4.6227,-4.6314,-4.6358,-4.642,-4.6479,-4.6588,-4.6657,-4.6708,-4.6784,-4.6878,-4.6955,-4.6976,-4.7006,-4.7006,-4.703,-4.6993,-4.6991,-4.6988,-4.697,-4.7012,-4.7012,-4.7062,-4.7062,-4.7062]},{"header":{"parameterUnit":"m.s-1","parameterCategory":1,"la1":30.2991,"la2":30.254,"lo1":-89.0895,"lo2":-89.0444,"dy":0.0017,"dx":0.0017,"nx":28,"ny":28,"refTime":"2025-11-29T03:00:00:Z","depth":0,"parameterNumber":3,"parameterNumberName":"V-component_of_WINDS"},"data":[0,0,0,0,0,0,0,0,0,0,0,0,0,0,0,0,0,0,0,0,0,0,0,0,0,0,0,0,0,0,0,0,0,0,0,0,0,0,0,0,0,0,0,0,0,0,0,0,0,0,0,0,0,0,0,0,0,0,5.0406,5.0406,0,5.0443,5.0443,5.0444,5.042,5.0419,5.0418,5.0417,5.0452,5.0454,5.0456,0,0,0,0,0,0,0,0,0,0,0,0,0,5.0313,5.0315,5.0406,5.0406,5.0407,5.0443,5.0443,5.0444,5.042,5.0419,5.0418,5.0416,5.0452,5.0454,5.0456,0,0,0,0,0,0,0,0,0,0,0,0,0,5.0352,5.0315,5.0406,5.04,5.0399,5.0443,5.0443,5.0444,5.0421,5.0419,5.0417,5.0416,5.0451,5.0454,5.0457,5.0508,0,0,5.0466,5.0467,0,0,0,0,0,0,0,0,5.035,5.0355,5.04,5.04,5.04,5.0425,5.0424,5.0465,5.0421,5.0412,5.0417,5.0415,5.0444,5.0448,5.0458,5.0509,5.0511,5.0466,5.0468,5.0469,5.047,0,0,0,0,0,0,0,5.0347,5.0354,5.042,5.0401,5.0401,5.0394,5.0398,5.0431,5.0437,5.0413,5.0411,5.0416,5.0444,5.0456,5.0459,5.0511,5.0466,5.0468,5.047,5.0471,5.0606,5.0608,0,0,0,0,0,0,5.0345,5.0352,5.0419,5.0422,5.037,5.0397,5.0401,5.0419,5.0437,5.0438,5.0418,5.0415,5.0451,5.0456,5.046,5.0521,5.0469,5.0472,5.0473,5.0604,5.0606,5.0608,0,0,0,0,0,0,5.0343,5.0351,5.0418,5.0386,5.0394,5.0401,5.042,5.042,5.0432,5.044,5.0441,5.0428,5.045,5.0456,5.0496,5.0522,5.0473,5.0476,5.0602,5.0605,5.0607,5.0642,0,0,0,0,0,0,5.0341,5.0351,5.0371,5.0387,5.0396,5.0454,5.0422,5.0422,5.0437,5.0434,5.045,5.0452,5.0449,5.0492,5.0499,5.0525,5.0478,5.06,5.0603,5.0607,5.0639,5.0646,5.0652,0,0,0,0,0,5.0338,5.0379,5.0372,5.038,5.0421,5.0455,5.0461,5.0458,5.0439,5.0459,5.0465,5.0451,5.0518,5.0496,5.0504,5.0531,5.0598,5.0602,5.0606,5.0636,5.0645,5.0652,0,0,0,0,0,0,5.0364,5.0381,5.0373,5.0421,5.0437,5.0451,5.0476,5.0467,5.0488,5.0484,5.0479,5.0483,5.0525,5.0532,5.0508,5.0581,5.0555,5.0561,5.0575,5.0583,5.059,5.0586,5.048,0,0,0,0,0,5.0376,5.0403,5.0416,5.0457,5.0465,5.0469,5.0484,5.0481,5.0497,5.0504,5.0512,5.0528,5.0552,5.0568,5.0591,5.064,5.0643,5.0663,5.0669,5.0675,5.0679,5.0706,5.0714,5.0622,5.0622,5.0622,0,0,5.04,5.0412,5.0429,5.0462,5.0474,5.0502,5.0475,5.0506,5.0526,5.0508,5.0546,5.0553,5.057,5.0615,5.0636,5.0622,5.0706,5.068,5.0684,5.0686,5.0711,5.0719,5.0727,5.0624,5.0624,5.0624,0,0,5.0457,5.047,5.0505,5.0518,5.0537,5.054,5.0549,5.0565,5.0569,5.0608,5.0595,5.0619,5.0661,5.0674,5.0686,5.075,5.0738,5.0757,5.0791,5.0816,5.0823,5.083,5.0852,5.086,5.0762,5.0762,5.0762,0,5.0484,5.0526,5.0524,5.0556,5.057,5.0557,5.0592,5.0605,5.063,5.064,5.0626,5.0679,5.0689,5.0737,5.0753,5.0763,5.0772,5.0755,5.0823,5.0829,5.0835,5.0856,5.0864,5.0764,5.0764,5.0764,5.0764,0,5.0558,5.0587,5.0613,5.0639,5.0657,5.0691,5.0693,5.0711,5.0707,5.0711,5.0751,5.0763,5.0788,5.08,5.0795,5.0847,5.0838,5.0824,5.0797,5.0846,5.0866,5.0874,5.0767,5.0767,5.0766,5.0766,0,0,5.0632,5.0657,5.0667,5.0678,5.0699,5.0721,5.0754,5.078,5.0795,5.0814,5.084,5.0877,5.0864,5.0878,5.0875,5.0898,5.0947,5.088,5.088,5.0891,5.1003,5.1014,5.1023,5.0939,5.0941,5.0942,5.1002,0,5.069,5.0748,5.0748,5.0801,5.0828,5.0816,5.0844,5.086,5.0865,5.0888,5.0893,5.0919,5.09,5.0908,5.093,5.0936,5.0969,5.0932,5.0963,5.0964,5.0958,5.1033,5.1044,5.11,5.1009,5.1011,5.1012,0,5.0765,5.0787,5.0843,5.0861,5.0872,5.0898,5.0921,5.0944,5.0961,5.0963,5.0979,5.0973,5.1005,5.0979,5.1024,5.0998,5.1011,5.1016,5.1018,5.102,5.099,5.1036,5.1117,5.1125,5.1024,5.1023,5.1022,0,5.0813,5.0856,5.0896,5.0906,5.0927,5.0946,5.0955,5.0971,5.0986,5.1007,5.1017,5.1041,5.1054,5.1072,5.1072,5.1053,5.1117,5.1091,5.1119,5.1119,5.1132,5.1131,5.1216,5.1142,5.1142,5.1142,5.1142,0,5.0877,5.0912,5.0917,5.0941,5.098,5.0979,5.1017,5.1025,5.1039,5.1064,5.1055,5.1078,5.1078,5.1101,5.1102,5.1138,5.1144,5.1146,5.1146,5.1146,5.1146,5.1154,5.115,5.1144,5.1144,5.1143,5.1143,0,5.0936,5.0942,5.0983,5.1001,5.1006,5.1033,5.1047,5.107,5.1075,5.1106,5.1114,5.1121,5.1148,5.115,5.1182,5.1182,5.1226,5.1222,5.1221,5.122,5.1247,5.1245,5.1339,5.1351,5.1271,5.1272,5.1272,0,5.0977,5.1003,5.1024,5.104,5.1051,5.1078,5.1094,5.1094,5.1111,5.1133,5.1153,5.118,5.1201,5.1246,5.1253,5.1277,5.1273,5.1304,5.1276,5.1276,5.1272,5.127,5.1273,5.1309,5.131,5.1311,5.1312,0,5.1048,5.1049,5.1073,5.1099,5.1119,5.1138,5.1157,5.1171,5.1173,5.1193,5.1221,5.1238,5.1271,5.1297,5.1321,5.133,5.1321,5.1321,5.1328,5.1329,5.1327,5.1328,5.1235,5.1318,5.1317,5.1317,5.1317,5.1316,5.1098,5.1121,5.114,5.1167,5.1181,5.1199,5.1221,5.1229,5.1253,5.128,5.1279,5.131,5.1326,5.1358,5.1368,5.1392,5.1382,5.1393,5.1396,5.1398,5.1401,5.1324,5.1397,5.1397,5.1396,5.1396,5.1396,0,5.1168,5.118,5.1205,5.1231,5.1253,5.1244,5.1264,5.1282,5.131,5.1327,5.1348,5.1381,5.1407,5.1417,5.1442,5.1459,5.1456,5.1465,5.1464,5.1466,5.1409,5.14,5.1468,5.1468,5.1468,5.1468,5.1468,5.1468,5.1207,5.1246,5.125,5.1295,5.1306,5.1337,5.1349,5.1365,5.1378,5.1416,5.1437,5.1444,5.1458,5.1484,5.1507,5.1509,5.1518,5.153,5.153,5.1477,5.147,5.1463,5.1454,5.1532,5.1532,5.1585,5.1585,5.1586]}]]